• Join FlightAware (Why Join?)
  • Login
  • US Flag GB Flag 
11:56 EDT


 

Airport Tracker/Info


-or-


 

Live Flight TrackerFlight Track Log ✈ N147SW ✈ 22-Mar-2014 ✈ MYBC / CCZ - KPIE

Flight Track Log - Related Links

Times and Time Zones

All times are in EDT time to prevent confusion due to time zone crossing. See the N147SW flight status page for this flight to view local times or setup timezone preferences in your user account.

Time Position Orientation Groundspeed Altitude Reporting Facility
EDT Latitude Longitude Course Direction KTS MPH feet Rate Location/Type
17:57 25.5367 -78.0194 299° West 374 430 11,700  Level Miami Center
17:58 25.5778 -78.1006 299° West 332 382 15,100 3,000 Climbing Miami Center
17:59 25.6186 -78.1864 298° West 319 367 17,800 2,580 Climbing Miami Center
18:00 25.6597 -78.2697 299° West 319 367 20,300 2,400 Climbing Miami Center
18:01 25.6771 -78.3587 301° West  Level Estimated
18:01 25.7028 -78.3578 299° West 319 367 22,700  Level Miami Center
18:02 25.7456 -78.4483 298° West 325 374 24,700 2,040 Climbing Miami Center
18:03 25.7906 -78.5414 298° West 330 380 26,800 1,620 Climbing Miami Center
18:04 25.8356 -78.6389 297° West 338 389 28,000 540 Climbing Miami Center
18:05 25.8883 -78.7458 299° West 357 411 28,000  Level Miami Center
18:06 25.9433 -78.8553 299° West 391 450 28,000  Level Miami Center
18:07 25.9961 -78.9719 297° West 410 472 28,000  Level Miami Center
18:08 26.0528 -79.0883 298° West 422 486 28,000  Level Miami Center
18:09 26.1094 -79.2053 298° West 427 491 28,000  Level Miami Center
18:10 26.1661 -79.3244 298° West 427 491 28,000  Level Miami Center
18:11 26.2225 -79.4414 298° West 432 497 28,000  Level Miami Center
18:12 26.2686 -79.5467 296° West 427 491 28,000  Level Miami Center
18:13 26.3289 -79.6756 298° West 427 491 28,000  Level Miami Center
18:14 26.3792 -79.7811 298° West 427 491 28,000  Level Miami Center
18:15 26.4392 -79.9125 297° West 422 486 28,000  Level Miami Center
18:16 26.4892 -80.0158 298° West 422 486 28,000  Level Miami Center
18:17 26.5469 -80.1428 297° West 422 486 28,000  Level Miami Center
18:18 26.6006 -80.2581 297° West 422 486 28,000  Level Miami Center
18:19 26.6503 -80.3642 298° West 417 480 28,000  Level Miami Center
18:20 26.7078 -80.4914 297° West 417 480 28,000  Level Miami Center
18:21 26.7553 -80.5953 297° West 417 480 28,000  Level Miami Center
18:22 26.8086 -80.7086 298° West 412 474 28,000  Level Miami Center
18:23 26.8619 -80.8244 297° West 412 474 28,000  Level Miami Center
18:24 26.9131 -80.9403 296° West 412 474 28,000  Level Miami Center
18:25 26.9700 -81.0633 297° West 412 474 28,000 -540 Level Miami Center
18:26 27.0231 -81.1794 297° West 413 475 27,000 -1,320 Descending Miami Center
18:27 27.0717 -81.2908 296° West 419 482 25,400 -1,800 Descending Miami Center
18:28 27.1267 -81.4097 297° West 424 488 23,400 -1,980 Descending Miami Center
18:29 27.1872 -81.5406 298° West 430 495 21,100 -2,160 Descending Miami Center
18:30 27.2494 -81.6783 297° West 418 481 18,800 -2,040 Descending Miami Center
18:31 27.2939 -81.7783 297° West 412 474 17,000 -1,800 Descending Miami Center
18:32 27.3406 -81.8856 296° West 399 459 15,200 -1,920 Descending Miami Center
18:33 27.3889 -81.9953 296° West 394 453 13,300 -1,920 Descending Miami Center
18:34 27.4428 -82.1144 297° West 394 453 11,400 -1,200 Descending Miami Center
18:35 27.5083 -82.2064 309° West 389 448 11,000 -360 Descending Miami Center
18:36 27.5739 -82.2986 309° West 379 436 10,700 -600 Descending Miami Center
18:37 27.5658 -82.3986 265° West 336 387 9,800 -1,680 Descending Miami Center
18:38 27.5542 -82.4825 261° West 303 349 7,400 -2,400 Descending Miami Center
18:39 27.5428 -82.5614 261° West 277 319 5,000 -1,860 Descending Miami Center
18:40 27.6061 -82.5975 333° Northwest 213 245 3,700 -1,140 Descending Miami Center
18:41 27.6781 -82.6222 343° North 226 260 2,800 -840 Descending Miami Center
18:42 27.7458 -82.6467 342° North 244 281 2,100 -540 Descending Miami Center
18:43 27.8056 -82.6683 342° North 244 281 1,800 -480 Descending Miami Center
18:44 27.8333 -82.6833 334° Northwest 197 227 1,400 -960 Descending Tampa TRACON
18:45 27.8833 -82.6833 360° North 167 192 400 -1,020 Descending Tampa TRACON
18:47 27.9000 -82.6833 344° North  Level FlightAware Approximate
18:54 27.9100 -82.6875 340° North  Level Estimated